DELTA 1 DEB, 10765

Orbit data source: Space-Track

DELTA 1 DEB, 10765 is space debris in SSO originally from a launch on Thu, 29 Jul 1976 UTC launched from the Air Force Western Test Range (AFWTR). Debris objects in space refer to the collection of defunct objects orbiting the Earth. Examples of debris include non-operational satellites, rocket bodies, and fragments generated from explosions, collisions, or faulty payload assembly.

Loading next visibility...
Identifier
10765, 1976-077BN
Orbit
SSO
Country
Flag of USUS
Related business
Manufacturer
Unknown
Mission
Spacecraft
Bus & Motor
Unknown
Mass
Unknown
Launch date (UTC)
1976-07-29 (50 years ago)
Launch vehicle
Unknown
Launch site
Air Force Western Test Range (AFWTR)
Object type
Payload
Rocket body
Debris
Shape & HBR
Unknown shape, 0.5 m
Radar Cross Section
Medium (>0.1 m² and <1 m²)

Expand to show TLE details & history
Last TLE update: 8 hours ago

TLE from 8 hours ago
0 DELTA 1 DEB
1 10765U 76077BN  26104.82532757 -.00000014  00000-0  26266-3 0  9999
2 10765 102.0038 305.6604 0130984 116.7868 256.2684 12.16525388208858
Epoch: 2026-04-14T19:48Z
TLE epoch observation values (Epoch: 2026-04-14T19:48:28.302Z)
Latitude
11.30575°
Longitude
163.12187°
Altitude
1,635.602 km
Speed
7.043 km/s
True Right ascension
20h 12m 56s
True Declination
11° 14' 49"
Sunlit
Object was in daylight at epoch
Visualization orbit readout
Latitude
Unknown
Longitude
Unknown
Altitude
Unknown
Speed
Unknown
Apparent Right ascension
Unknown
Apparent Declination
Unknown
Sunlit
N/A
Visualization observer readout
Local Sidereal Time
10:29:48
Azimuth
Unknown
Elevation
Unknown
Doppler factor
Unknown
Orbital elements
Apogee altitude
1,709.887 km
Perigee altitude
1,500.746 km
Semi-major axis
7,983.453 km
Eccentricity
0.0131
Inclination
102.0038°
RAAN
305.6604°
Arg. of periapsis
116.7868°
True anomaly
254.81614°
Mean anomaly
256.2684°
Eccentric anomaly
255.54169°
Mean motion
3.04268 °/min
Orbital period
118.32 mins
BSTAR
0.00026266
Loading maneuver chart data...
Computing Atmospheric mass density...
Loading historical data...
Loading historical data...
Loading historical data...
Loading historical data...
Loading historical data...
Loading historical data...
Loading historical data...

Documentation

Showing up to 5 results
|